Location: Newark
(50.4348°N, 30.5552°E)
Time: 01:50:33
(UTC+00:00)

Transit 2A Rocket - Pass Details

Date: 01 February 2020
Orbit: 591 x 912 km, 66.7° (Epoch: 21 February)

Event Time Altitude Azimuth Distance (km) Brightness Sun altitude
Exits shadow 04:25:55 12° 311° (NW) 1,824 6.4 -10.9°
Maximum altitude 04:27:44 15° 338° (NNW) 1,684 6.5 -10.7°
Drops below altitude 10° 04:30:21 10° 14° (NNE) 2,026 7.2 -10.3°
Sets 04:33:40 0° 38° (NE) 2,996 8.4 -9.7°
